Home > Weather > Nancy > Past weeks

Flag for France Past Weather in Nancy, Lorraine, France — Yesterday and Last 2 Weeks

Now
61 °F

Broken clouds.


Feels Like: 61 °F
Forecast: 60 / 72 °F
Wind: 9 mph from West

Location: Nancy / Ochey

Current Time: Jun 29, 2016 at 7:46:51 AM

Latest Report: Jun 29, 2016 at 7:00 AM


Visibility: N/A

Pressure: 30.01 "Hg

Humidity: 88%

Dew Point: 57 °F

Location of NancyLocation

Past Weather in Nancy — Graph

°F

Nancy Temperature Yesterday

Maximum temperature yesterday: 68 °F (at 1:30 PM)
Minimum temperature yesterday: 59 °F (at 12:00 AM)
Average temperature yesterday: 63 °F

High & Low Weather Summary for the Past Weeks

 TemperatureHumidityPressure
High90 °F (Jun 23, 3:30 PM)100% (Jun 14, 6:30 AM)30.27 "Hg (Jun 14, 6:30 AM)
Low48 °F (Jun 20, 4:00 AM)41% (Jun 23, 5:00 PM)29.53 "Hg (Jun 15, 6:00 AM)
Average62 °F82%30.01 "Hg
* Reported Jun 14 6:00 AM — Jun 29 6:30 AM, Nancy, Weather by CustomWeather, © 2016

Note: Actual official high and low records may vary slightly from our data, if they occured in-between our weather recording intervals... More about our weather records

Advertising

Nancy Weather History for the Previous 24 Hours

Scroll right to see more
 ConditionsComfort  
Time TempWeatherWind HumidityBarometerVisibility
6:30 AM
Wed, Jun 29
59 °FClear.8 mph88%30.01 "Hg10 mi
6:00 AM59 °FPassing clouds.7 mph94%30.01 "HgN/A
5:30 AM61 °FPassing clouds.10 mph88%29.98 "HgN/A
5:00 AM61 °FPartly cloudy.10 mph88%29.98 "HgN/A
4:30 AM63 °FPassing clouds.10 mph88%29.98 "HgN/A
4:00 AM61 °FPassing clouds.10 mph94%29.98 "HgN/A
3:30 AM63 °FPassing clouds.14 mph88%29.98 "HgN/A
3:00 AM63 °FPartly cloudy.12 mph88%29.98 "HgN/A
2:30 AM63 °FClear.13 mph88%29.98 "Hg10 mi
2:00 AM63 °FClear.13 mph88%29.98 "Hg10 mi
1:30 AM63 °FClear.10 mph88%29.98 "Hg10 mi
1:00 AM63 °FClear.10 mph88%29.98 "Hg10 mi
12:30 AM63 °FClear.10 mph88%29.98 "Hg10 mi
12:00 AM63 °FClear.7 mph94%29.98 "Hg10 mi
11:30 PM
Tue, Jun 28
63 °FClear.6 mph94%29.98 "Hg10 mi
11:00 PM63 °FClear.6 mph94%29.98 "Hg10 mi
10:30 PM63 °FSunny.6 mph94%29.98 "Hg10 mi
10:00 PM64 °FSunny.6 mph88%29.98 "Hg10 mi
9:30 PM64 °FSunny.5 mph88%30.01 "Hg10 mi
9:00 PM64 °FBroken clouds.3 mph88%30.01 "HgN/A
8:30 PM66 °FPartly sunny.3 mph83%30.01 "HgN/A
8:00 PM66 °FMild.3 mph83%30.01 "HgN/A
7:30 PM66 °FBroken clouds.No wind83%30.01 "HgN/A
7:00 PM66 °FCloudy.No wind78%30.01 "HgN/A
6:30 PM68 °FBroken clouds.No wind73%30.01 "HgN/A
6:00 PM68 °FBroken clouds.2 mph78%30.04 "HgN/A
5:30 PM66 °FSunny.1 mph78%30.04 "Hg10 mi
5:00 PM66 °FSunny.No wind78%30.04 "Hg10 mi
4:30 PM66 °FOvercast.3 mph78%30.04 "HgN/A
4:00 PM64 °FMostly cloudy.6 mph83%30.07 "HgN/A
3:30 PM63 °FFog.7 mph94%30.07 "Hg3 mi
3:00 PM64 °FBroken clouds.6 mph88%30.07 "HgN/A
2:30 PM63 °FMostly cloudy.8 mph88%30.07 "HgN/A
2:00 PM66 °FPartly sunny.6 mph83%30.07 "HgN/A
1:30 PM68 °FBroken clouds.2 mph83%30.07 "HgN/A
1:00 PM64 °FFog.5 mph88%30.09 "Hg3 mi
12:30 PM64 °FBroken clouds.2 mph94%30.09 "HgN/A
12:00 PM63 °FRain. Broken clouds.6 mph94%30.09 "Hg6 mi
11:30 AM63 °FLight rain. Broken clouds.6 mph94%30.09 "Hg4 mi
11:00 AM63 °FBroken clouds.8 mph94%30.09 "HgN/A
10:30 AM66 °FBroken clouds.12 mph88%30.09 "HgN/A
10:00 AM63 °FMostly cloudy.10 mph94%30.09 "HgN/A
9:30 AM61 °FMostly cloudy.8 mph100%30.12 "HgN/A
9:00 AM61 °FMostly cloudy.6 mph100%30.09 "HgN/A
8:30 AM61 °FLow clouds.6 mph100%30.09 "HgN/A
8:00 AM61 °FDrizzle. Mostly cloudy.3 mph94%30.12 "Hg4 mi
7:30 AM61 °FLow clouds.7 mph94%30.12 "Hg4 mi
7:00 AM61 °FOvercast.5 mph94%30.12 "HgN/A
Weather by CustomWeather, © 2016

See weather overviewHow to use our weather pages